| time (UTC) | temp C | wind direction | speed KPH | gust KPH | rain 1hr cm | rain 24hr cm | rain mn cm | humidity % | barometer mb |
| 20260502123045 | 2 | 157 | 6.4 | 16.1 | 0.00 | 0.00 | 0.00 | 53 | 1018.6 |
| 20260502121545 | 1 | 157 | 14.5 | 19.3 | 0.00 | 0.00 | 0.00 | 54 | 1018.4 |
| 20260502114537 | 0 | 157 | 3.2 | 8.0 | 0.00 | 0.00 | 0.00 | 57 | 1018.5 |
| 20260502113009 | 1 | 157 | 6.4 | 11.3 | 0.00 | 0.00 | 0.00 | 57 | 1018.6 |
| 20260502111510 | 0 | 157 | 9.7 | 12.9 | 0.00 | 0.00 | 0.00 | 62 | 1018.7 |
| 20260502110050 | 1 | 157 | 11.3 | 14.5 | 0.00 | 0.00 | 0.00 | 58 | 1018.8 |
| 20260502104550 | 0 | 157 | 11.3 | 19.3 | 0.00 | 0.00 | 0.00 | 61 | 1019.0 |
| 20260502103032 | 1 | 157 | 8.0 | 14.5 | 0.00 | 0.00 | 0.00 | 57 | 1019.0 |
| 20260502101534 | 1 | 157 | 12.9 | 16.1 | 0.00 | 0.00 | 0.00 | 61 | 1019.1 |
| 20260502070019 | 2 | 157 | 11.3 | 17.7 | 0.00 | 0.00 | 0.00 | 58 | 1019.6 |
| 20260502064536 | 2 | 157 | 11.3 | 17.7 | 0.00 | 0.00 | 0.00 | 60 | 1019.6 |
| 20260502063126 | 1 | 157 | 11.3 | 16.1 | 0.00 | 0.00 | 0.00 | 67 | 1019.6 |
| 20260502061558 | 0 | 157 | 9.7 | 12.9 | 0.00 | 0.00 | 0.00 | 70 | 1019.7 |
| 20260502060045 | 0 | 157 | 11.3 | 12.9 | 0.00 | 0.00 | 0.00 | 68 | 1019.9 |
| 20260502054535 | 1 | 157 | 9.7 | 12.9 | 0.00 | 0.00 | 0.00 | 64 | 1019.9 |
| 20260502053013 | 2 | 157 | 11.3 | 14.5 | 0.00 | 0.00 | 0.00 | 59 | 1019.8 |
| 20260502051510 | 3 | 157 | 12.9 | 16.1 | 0.00 | 0.00 | 0.00 | 57 | 1019.7 |
| 20260502050050 | 3 | 157 | 11.3 | 14.5 | 0.00 | 0.00 | 0.00 | 55 | 1019.5 |
| 20260502044546 | 4 | 157 | 9.7 | 14.5 | 0.00 | 0.00 | 0.00 | 50 | 1019.5 |
| 20260502043028 | 6 | 157 | 8.0 | 11.3 | 0.00 | 0.00 | 0.00 | 44 | 1019.5 |
| 20260502041533 | 6 | 157 | 3.2 | 11.3 | 0.00 | 0.00 | 0.00 | 43 | 1019.4 |
| 20260502040005 | 5 | 157 | 4.8 | 20.9 | 0.00 | 0.00 | 0.00 | 48 | 1019.2 |
| 20260502034503 | 5 | 157 | 16.1 | 20.9 | 0.00 | 0.00 | 0.00 | 48 | 1018.9 |
| 20260502033043 | 6 | 157 | 17.7 | 24.1 | 0.00 | 0.00 | 0.00 | 46 | 1018.7 |
| 20260502031541 | 6 | 157 | 14.5 | 24.1 | 0.00 | 0.00 | 0.00 | 44 | 1018.6 |
| 20260502030022 | 6 | 157 | 11.3 | 16.1 | 0.00 | 0.00 | 0.00 | 49 | 1018.4 |
| 20260502024517 | 6 | 157 | 12.9 | 16.1 | 0.00 | 0.00 | 0.00 | 48 | 1018.3 |
| 20260502023104 | 10 | 157 | 4.8 | 8.0 | 0.00 | 0.00 | 0.00 | 34 | 1017.9 |
| 20260502021554 | 12 | 157 | 1.6 | 4.8 | 0.00 | 0.00 | 0.00 | 25 | 1017.9 |
| 20260502020035 | 12 | 157 | 3.2 | 6.4 | 0.00 | 0.00 | 0.00 | 25 | 1017.7 |
| 20260502014529 | 13 | 148 | 6.4 | 12.9 | 0.00 | 0.00 | 0.00 | 25 | 1017.8 |
| 20260502013013 | 13 | 152 | 8.0 | 11.3 | 0.00 | 0.00 | 0.00 | 21 | 1017.7 |
| 20260502011510 | 14 | 154 | 3.2 | 8.0 | 0.00 | 0.00 | 0.00 | 18 | 1017.7 |
| 20260502004551 | 15 | 150 | 1.6 | 3.2 | 0.00 | 0.00 | 0.00 | 18 | 1017.7 |
| 20260502003033 | 14 | 149 | 1.6 | 11.3 | 0.00 | 0.00 | 0.00 | 18 | 1017.7 |
| 20260502001534 | 14 | 147 | 6.4 | 17.7 | 0.00 | 0.00 | 0.00 | 19 | 1017.9 |
| 20260502000017 | 14 | 150 | 3.2 | 12.9 | 0.00 | 0.00 | 0.00 | 18 | 1017.7 |
| 20260501234514 | 14 | 149 | 9.7 | 16.1 | 0.00 | 0.00 | 0.00 | 18 | 1017.8 |
| 20260501233103 | 14 | 149 | 6.4 | 14.5 | 0.00 | 0.00 | 0.00 | 18 | 1017.9 |
| 20260501231606 | 14 | 149 | 9.7 | 17.7 | 0.00 | 0.00 | 0.00 | 19 | 1018.0 |
| 20260501230043 | 14 | 148 | 11.3 | 17.7 | 0.00 | 0.00 | 0.00 | 19 | 1018.1 |
| 20260501224541 | 15 | 146 | 4.8 | 14.5 | 0.00 | 0.00 | 0.00 | 19 | 1018.2 |
| 20260501223041 | 15 | 146 | 6.4 | 14.5 | 0.00 | 0.00 | 0.00 | 20 | 1018.3 |
| 20260501221539 | 13 | 148 | 6.4 | 16.1 | 0.00 | 0.00 | 0.00 | 18 | 1018.5 |
| 20260501220040 | 14 | 147 | 6.4 | 19.3 | 0.00 | 0.00 | 0.00 | 19 | 1018.7 |
| 20260501214536 | 15 | 147 | 11.3 | 16.1 | 0.00 | 0.00 | 0.00 | 19 | 1018.9 |
| 20260501213036 | 15 | 147 | 9.7 | 20.9 | 0.00 | 0.00 | 0.00 | 20 | 1019.2 |
| 20260501211533 | 14 | 147 | 11.3 | 25.7 | 0.00 | 0.00 | 0.00 | 23 | 1019.5 |
| 20260501210008 | 14 | 145 | 3.2 | 12.9 | 0.00 | 0.00 | 0.00 | 21 | 1019.6 |
| 20260501204511 | 13 | 144 | 4.8 | 12.9 | 0.00 | 0.00 | 0.00 | 20 | 1019.7 |
| 20260501203052 | 13 | 150 | 4.8 | 11.3 | 0.00 | 0.00 | 0.00 | 20 | 1019.8 |
| 20260501201550 | 12 | 149 | 6.4 | 14.5 | 0.00 | 0.00 | 0.00 | 19 | 1019.9 |
| 20260501200049 | 12 | 148 | 6.4 | 22.5 | 0.00 | 0.00 | 0.00 | 20 | 1019.9 |
| 20260501194549 | 12 | 148 | 6.4 | 14.5 | 0.00 | 0.00 | 0.00 | 19 | 1019.9 |
| 20260501193046 | 12 | 148 | 3.2 | 11.3 | 0.00 | 0.00 | 0.00 | 19 | 1020.0 |
| 20260501191546 | 12 | 144 | 9.7 | 19.3 | 0.00 | 0.00 | 0.00 | 20 | 1020.1 |
| 20260501190045 | 12 | 146 | 3.2 | 8.0 | 0.00 | 0.00 | 0.00 | 20 | 1020.3 |
| 20260501184547 | 12 | 156 | 3.2 | 11.3 | 0.00 | 0.00 | 0.00 | 18 | 1020.4 |
| 20260501183027 | 12 | 156 | 3.2 | 16.1 | 0.00 | 0.00 | 0.00 | 19 | 1020.5 |
| 20260501181521 | 11 | 155 | 1.6 | 12.9 | 0.00 | 0.00 | 0.00 | 18 | 1020.6 |
| 20260501180004 | 11 | 157 | 3.2 | 16.1 | 0.00 | 0.00 | 0.00 | 16 | 1020.7 |
| 20260501174501 | 11 | 157 | 1.6 | 11.3 | 0.00 | 0.00 | 0.00 | 20 | 1020.8 |
| 20260501173048 | 11 | 157 | 4.8 | 9.7 | 0.00 | 0.00 | 0.00 | 21 | 1020.9 |
| 20260501171550 | 10 | 157 | 1.6 | 11.3 | 0.00 | 0.00 | 0.00 | 25 | 1021.0 |
| 20260501170021 | 10 | 157 | 3.2 | 9.7 | 0.00 | 0.00 | 0.00 | 27 | 1021.1 |
| 20260501164518 | 10 | 157 | 8.0 | 16.1 | 0.00 | 0.00 | 0.00 | 31 | 1021.1 |
| 20260501163105 | 8 | 157 | 3.2 | 17.7 | 0.00 | 0.00 | 0.00 | 30 | 1021.1 |
| 20260501161555 | 8 | 157 | 14.5 | 20.9 | 0.00 | 0.00 | 0.00 | 37 | 1021.1 |
| 20260501160046 | 7 | 157 | 14.5 | 22.5 | 0.00 | 0.00 | 0.00 | 39 | 1021.2 |
| 20260501154550 | 7 | 157 | 22.5 | 27.4 | 0.00 | 0.18 | 0.00 | 40 | 1021.3 |
| 20260501153040 | 6 | 157 | 19.3 | 27.4 | 0.00 | 0.18 | 0.00 | 43 | 1021.5 |
| 20260501151549 | 6 | 157 | 16.1 | 24.1 | 0.00 | 0.18 | 0.00 | 45 | 1021.5 |
| 20260501150039 | 6 | 157 | 17.7 | 25.7 | 0.00 | 0.18 | 0.00 | 46 | 1021.5 |
| 20260501144538 | 5 | 157 | 17.7 | 25.7 | 0.00 | 0.30 | 0.00 | 48 | 1021.5 |
| 20260501143041 | 5 | 157 | 17.7 | 25.7 | 0.00 | 0.30 | 0.00 | 49 | 1021.7 |